User: anonymous   Login
Location: Dover
(39.1580°N, 75.5250°W)
Time: 12:33:08
(UTC-04:00)
Language:

Cosmos 1437 Rocket - Orbit

View from above orbital plane
View from above orbital plane
View from above satellite
View from above satellite

Ground track
Ground track

The orbit data is extracted from the following two-line orbital elements,

1 13771U 83003B   18109.81618215 +.00000181 +00000-0 +93131-5 0  9996
2 13771 081.1548 009.6275 0042837 070.9802 289.6057 15.10081048920069
Epoch (UTC): 19 April 2018 19:35:18
Eccentricity: 0.0042837
inclination: 81.1548°
perigee height: 506 km
apogee height: 565 km
right ascension of ascending node: 9.6275°
argument of perigee: 70.9802°
revolutions per day: 15.10081048
mean anomaly at epoch: 289.6057°
orbit number at epoch: 92006

The dashed part of the orbit path shows where the satellite is in the earth's shadow,  

DLR